Location: Theydon Bois
(51.6750°N, 0.1050°E)
Time: 12:28:10
(UTC+00:00)

N. Korean satellite - Visible Passes

Search period start: 12 December 2017 00:00
Search period end: 22 December 2017 00:00
Orbit: 461 x 513 km, 97.2° (Epoch: 11 December)

Date Brightness Start Highest point End Pass type
(mag) Time Alt. Az. Time Alt. Az. Time Alt. Az.
12 Dec 7.1 06:48:31 10° NNE 06:52:16 68° E 06:55:57 10° S visible
12 Dec 6.6 17:29:36 10° SSE 17:33:16 59° ENE 17:36:59 10° N visible
12 Dec 9.8 19:05:01 10° WSW 19:07:09 15° W 19:09:19 10° NW visible
13 Dec 8.3 06:25:07 10° NNE 06:28:38 37° E 06:32:05 10° SSE visible
13 Dec 7.3 17:06:25 10° SE 17:09:48 33° ENE 17:13:14 10° N visible
13 Dec 9.0 18:40:17 10° SSW 18:43:23 24° W 18:46:31 10° NW visible
14 Dec 9.4 06:01:59 10° NE 06:04:55 21° E 06:07:49 10° SE visible
14 Dec 7.9 16:43:35 10° ESE 16:46:25 21° ENE 16:49:17 10° NNE visible
14 Dec 7.9 18:16:08 10° S 18:19:41 42° W 18:23:18 10° NNW visible
15 Dec 10.0 05:39:25 10° ENE 05:41:07 13° E 05:42:49 10° ESE visible
15 Dec 6.6 07:11:22 10° N 07:15:06 67° WNW 07:18:45 10° SSW visible
15 Dec 6.7 17:52:21 10° S 17:56:04 78° WSW 17:59:52 10° NNW visible
16 Dec 7.1 06:47:47 10° NNE 06:51:32 67° ESE 06:55:10 10° S visible
16 Dec 6.7 17:28:51 10° SSE 17:32:32 58° ENE 17:36:16 10° N visible
16 Dec 9.8 19:04:13 10° SW 19:06:24 15° W 19:08:37 10° NW visible
17 Dec 8.4 06:24:24 10° NNE 06:27:53 36° E 06:31:17 10° SSE visible
17 Dec 7.3 17:05:40 10° SE 17:09:04 33° ENE 17:12:30 10° N visible
17 Dec 9.0 18:39:30 10° SSW 18:42:37 25° W 18:45:48 10° NW visible
18 Dec 9.4 06:01:16 10° NE 06:04:09 21° E 06:06:59 10° SE visible
18 Dec 7.9 16:42:50 10° ESE 16:45:40 21° ENE 16:48:31 10° NNE visible
18 Dec 7.9 18:15:21 10° S 18:18:56 43° W 18:22:34 10° NNW visible
19 Dec 10.0 05:38:44 10° ENE 05:40:20 12° E 05:41:55 10° ESE visible
19 Dec 6.6 07:10:37 10° N 07:14:19 68° WNW 07:17:56 10° SSW visible
19 Dec 6.7 17:51:33 10° S 17:55:18 79° WSW 17:59:06 10° NNW visible
20 Dec 7.1 06:47:03 10° NNE 06:50:44 66° ESE 06:54:21 10° S visible
20 Dec 6.7 17:28:04 10° SSE 17:31:45 58° ENE 17:35:28 10° N visible
20 Dec 9.8 19:03:23 10° SW 19:05:37 15° W 19:07:52 10° NW visible
21 Dec 8.4 06:23:38 10° NNE 06:27:05 35° E 06:30:26 10° SSE visible
21 Dec 7.3 17:04:53 10° SE 17:08:16 33° ENE 17:11:41 10° N visible
21 Dec 9.0 18:38:41 10° SSW 18:41:50 25° W 18:45:01 10° NW visible
